Time,TemperatureF,DewpointF,PressureIn,WindDirection,WindDirectionDegrees,WindSpeedMPH,WindSpeedGustMPH,Humidity,HourlyPrecipIn,Conditions,Clouds,dailyrainin,SoftwareType,DateUTC
2013-10-25 00:01:00,30.3,27.5,30.29,West,270,0.0,0.0,89,0.00,,,0.00,WUHU216HW,2013-10-25 04:01:00,
2013-10-25 00:02:00,30.3,27.5,30.29,West,270,0.0,0.0,89,0.00,,,0.00,WUHU216HW,2013-10-25 04:02:00,
2013-10-25 00:04:00,30.2,27.3,30.29,WNW,293,0.0,0.0,89,0.00,,,0.00,WUHU216HW,2013-10-25 04:04:00,
2013-10-25 00:09:00,30.2,27.3,30.30,WSW,248,0.0,0.0,89,0.00,,,0.00,WUHU216HW,2013-10-25 04:09:00,
2013-10-25 00:14:00,30.2,27.3,30.30,West,270,0.0,0.0,89,0.00,,,0.00,WUHU216HW,2013-10-25 04:14:00,
2013-10-25 00:19:00,30.0,27.2,30.30,West,270,0.0,0.0,89,0.00,,,0.00,WUHU216HW,2013-10-25 04:19:00,
2013-10-25 00:24:00,30.0,27.2,30.30,NW,315,0.0,0.0,89,0.00,,,0.00,WUHU216HW,2013-10-25 04:24:00,
2013-10-25 00:29:00,30.0,27.5,30.30,WNW,293,0.0,0.0,90,0.00,,,0.00,WUHU216HW,2013-10-25 04:29:00,
2013-10-25 00:35:00,30.0,27.5,30.30,NW,315,0.0,0.0,90,0.00,,,0.00,WUHU216HW,2013-10-25 04:35:00,
2013-10-25 00:40:00,30.0,27.5,30.30,NW,315,0.0,0.0,90,0.00,,,0.00,WUHU216HW,2013-10-25 04:40:00,
2013-10-25 00:45:00,30.0,27.5,30.30,NW,315,2.9,2.9,90,0.00,,,0.00,WUHU216HW,2013-10-25 04:45:00,
2013-10-25 00:50:00,30.2,27.6,30.31,WNW,293,0.0,2.9,90,0.00,,,0.00,WUHU216HW,2013-10-25 04:50:00,
2013-10-25 00:55:00,30.0,27.5,30.31,WNW,293,0.0,0.0,90,0.00,,,0.00,WUHU216HW,2013-10-25 04:55:00,
2013-10-25 01:00:00,30.0,27.5,30.31,West,270,0.0,0.0,90,0.00,,,0.00,WUHU216HW,2013-10-25 05:00:00,
2013-10-25 01:05:00,30.0,27.5,30.31,WNW,293,0.0,0.0,90,0.00,,,0.00,WUHU216HW,2013-10-25 05:05:00,
2013-10-25 01:10:00,30.0,27.5,30.31,NW,315,0.0,0.0,90,0.00,,,0.00,WUHU216HW,2013-10-25 05:10:00,
2013-10-25 01:15:00,29.8,27.3,30.31,West,270,0.0,0.0,90,0.00,,,0.00,WUHU216HW,2013-10-25 05:15:00,
2013-10-25 01:20:00,29.8,27.3,30.31,NW,315,0.0,0.0,90,0.00,,,0.00,WUHU216HW,2013-10-25 05:20:00,
2013-10-25 01:25:00,29.6,26.8,30.31,NNW,338,0.0,0.0,89,0.00,,,0.00,WUHU216HW,2013-10-25 05:25:00,
2013-10-25 01:30:00,29.8,27.3,30.32,West,270,0.0,0.0,90,0.00,,,0.00,WUHU216HW,2013-10-25 05:30:00,
2013-10-25 01:35:00,29.8,27.3,30.32,WNW,293,0.0,0.0,90,0.00,,,0.00,WUHU216HW,2013-10-25 05:35:00,
2013-10-25 01:40:00,30.0,27.5,30.32,WNW,293,0.0,0.0,90,0.00,,,0.00,WUHU216HW,2013-10-25 05:40:00,
2013-10-25 01:46:00,29.8,27.5,30.32,West,270,0.0,0.0,90,0.00,,,0.00,WUHU216HW,2013-10-25 05:46:00,
2013-10-25 01:51:00,29.8,27.3,30.32,West,270,0.0,0.0,90,0.00,,,0.00,WUHU216HW,2013-10-25 05:51:00,
2013-10-25 01:56:00,29.8,27.3,30.32,NW,315,0.0,0.0,90,0.00,,,0.00,WUHU216HW,2013-10-25 05:56:00,
2013-10-25 02:01:00,29.8,27.3,30.33,West,270,0.0,0.0,90,0.00,,,0.00,WUHU216HW,2013-10-25 06:01:00,
2013-10-25 02:06:00,30.0,27.5,30.33,West,270,0.0,0.0,90,0.00,,,0.00,WUHU216HW,2013-10-25 06:06:00,
2013-10-25 02:11:00,29.8,27.3,30.32,West,270,0.0,0.0,90,0.00,,,0.00,WUHU216HW,2013-10-25 06:11:00,
2013-10-25 02:16:00,29.6,27.1,30.32,West,270,0.0,0.0,90,0.00,,,0.00,WUHU216HW,2013-10-25 06:16:00,
2013-10-25 02:21:00,29.4,26.9,30.33,West,270,0.0,0.0,90,0.00,,,0.00,WUHU216HW,2013-10-25 06:21:00,
2013-10-25 02:26:00,29.3,26.7,30.33,West,270,0.0,0.0,90,0.00,,,0.00,WUHU216HW,2013-10-25 06:26:00,
2013-10-25 02:31:00,29.1,26.6,30.33,West,270,0.0,0.0,90,0.00,,,0.00,WUHU216HW,2013-10-25 06:31:00,
2013-10-25 02:36:00,28.9,26.4,30.33,West,270,0.0,0.0,90,0.00,,,0.00,WUHU216HW,2013-10-25 06:36:00,
2013-10-25 02:41:00,28.9,26.4,30.33,West,270,0.0,0.0,90,0.00,,,0.00,WUHU216HW,2013-10-25 06:41:00,
2013-10-25 02:46:00,28.9,26.4,30.33,West,270,0.0,0.0,90,0.00,,,0.00,WUHU216HW,2013-10-25 06:46:00,
2013-10-25 02:51:00,29.1,26.6,30.33,West,270,0.0,0.0,90,0.00,,,0.00,WUHU216HW,2013-10-25 06:51:00,
2013-10-25 02:57:00,28.9,26.4,30.33,West,270,0.0,0.0,90,0.00,,,0.00,WUHU216HW,2013-10-25 06:57:00,
2013-10-25 03:02:00,28.9,26.4,30.34,West,270,0.0,0.0,90,0.00,,,0.00,WUHU216HW,2013-10-25 07:02:00,
2013-10-25 03:07:00,28.9,26.4,30.34,West,270,0.0,0.0,90,0.00,,,0.00,WUHU216HW,2013-10-25 07:07:00,
2013-10-25 03:12:00,28.7,26.2,30.34,West,270,0.0,0.0,90,0.00,,,0.00,WUHU216HW,2013-10-25 07:12:00,
2013-10-25 03:17:00,28.7,26.2,30.34,West,270,0.0,0.0,90,0.00,,,0.00,WUHU216HW,2013-10-25 07:17:00,
2013-10-25 03:22:00,28.5,26.0,30.34,West,270,0.0,0.0,90,0.00,,,0.00,WUHU216HW,2013-10-25 07:22:00,
2013-10-25 03:27:00,29.4,26.9,30.34,West,270,0.0,0.0,90,0.00,,,0.00,WUHU216HW,2013-10-25 07:27:00,
2013-10-25 03:32:00,29.4,26.9,30.34,West,270,0.0,0.0,90,0.00,,,0.00,WUHU216HW,2013-10-25 07:32:00,
2013-10-25 03:37:00,29.4,26.9,30.34,West,270,0.0,0.0,90,0.00,,,0.00,WUHU216HW,2013-10-25 07:37:00,
2013-10-25 03:42:00,29.1,26.6,30.33,West,270,0.0,0.0,90,0.00,,,0.00,WUHU216HW,2013-10-25 07:42:00,
2013-10-25 03:47:00,29.1,26.6,30.33,West,270,0.0,0.0,90,0.00,,,0.00,WUHU216HW,2013-10-25 07:47:00,
2013-10-25 03:52:00,28.5,26.0,30.33,West,270,0.0,0.0,90,0.00,,,0.00,WUHU216HW,2013-10-25 07:52:00,
2013-10-25 03:57:00,28.5,26.0,30.33,West,270,0.0,0.0,90,0.00,,,0.00,WUHU216HW,2013-10-25 07:57:00,
2013-10-25 04:02:00,28.5,26.0,30.33,West,270,0.0,0.0,90,0.00,,,0.00,WUHU216HW,2013-10-25 08:02:00,
2013-10-25 04:07:00,28.5,26.0,30.33,West,270,0.0,0.0,90,0.00,,,0.00,WUHU216HW,2013-10-25 08:07:00,
2013-10-25 04:13:00,28.2,25.7,30.34,West,270,0.0,0.0,90,0.00,,,0.00,WUHU216HW,2013-10-25 08:13:00,
2013-10-25 04:18:00,28.2,25.7,30.33,West,270,0.0,0.0,90,0.00,,,0.00,WUHU216HW,2013-10-25 08:18:00,
2013-10-25 04:23:00,28.4,25.8,30.34,West,270,0.0,0.0,90,0.00,,,0.00,WUHU216HW,2013-10-25 08:23:00,
2013-10-25 04:28:00,28.7,26.2,30.34,West,270,0.0,0.0,90,0.00,,,0.00,WUHU216HW,2013-10-25 08:28:00,
2013-10-25 04:33:00,28.7,26.2,30.35,West,270,0.0,0.0,90,0.00,,,0.00,WUHU216HW,2013-10-25 08:33:00,
2013-10-25 04:38:00,28.7,26.2,30.35,West,270,0.0,0.0,90,0.00,,,0.00,WUHU216HW,2013-10-25 08:38:00,
2013-10-25 04:43:00,28.7,26.2,30.35,West,270,0.0,0.0,90,0.00,,,0.00,WUHU216HW,2013-10-25 08:43:00,
2013-10-25 04:48:00,28.7,26.2,30.35,West,270,0.0,0.0,90,0.00,,,0.00,WUHU216HW,2013-10-25 08:48:00,
2013-10-25 04:53:00,28.5,26.0,30.35,West,270,0.0,0.0,90,0.00,,,0.00,WUHU216HW,2013-10-25 08:53:00,
2013-10-25 04:58:00,28.2,25.7,30.35,West,270,0.0,0.0,90,0.00,,,0.00,WUHU216HW,2013-10-25 08:58:00,
2013-10-25 05:03:00,28.2,25.7,30.35,West,270,0.0,0.0,90,0.00,,,0.00,WUHU216HW,2013-10-25 09:03:00,
2013-10-25 05:08:00,28.7,26.2,30.35,West,270,0.0,0.0,90,0.00,,,0.00,WUHU216HW,2013-10-25 09:08:00,
2013-10-25 05:13:00,28.7,26.2,30.35,West,270,0.0,0.0,90,0.00,,,0.00,WUHU216HW,2013-10-25 09:13:00,
2013-10-25 05:18:00,28.9,26.4,30.35,West,270,0.0,0.0,90,0.00,,,0.00,WUHU216HW,2013-10-25 09:18:00,
2013-10-25 05:23:00,29.1,26.6,30.35,West,270,0.0,0.0,90,0.00,,,0.00,WUHU216HW,2013-10-25 09:23:00,
2013-10-25 05:29:00,29.1,26.6,30.35,West,270,0.0,0.0,90,0.00,,,0.00,WUHU216HW,2013-10-25 09:29:00,
2013-10-25 05:34:00,29.1,26.6,30.36,West,270,0.0,0.0,90,0.00,,,0.00,WUHU216HW,2013-10-25 09:34:00,
2013-10-25 05:39:00,29.1,26.6,30.35,West,270,0.0,0.0,90,0.00,,,0.00,WUHU216HW,2013-10-25 09:39:00,
2013-10-25 05:44:00,29.1,26.6,30.35,West,270,0.0,0.0,90,0.00,,,0.00,WUHU216HW,2013-10-25 09:44:00,
2013-10-25 05:49:00,29.1,26.6,30.36,West,270,0.0,0.0,90,0.00,,,0.00,WUHU216HW,2013-10-25 09:49:00,
2013-10-25 05:54:00,29.1,26.6,30.36,West,270,0.0,0.0,90,0.00,,,0.00,WUHU216HW,2013-10-25 09:54:00,
2013-10-25 05:59:00,29.1,26.6,30.37,West,270,0.0,0.0,90,0.00,,,0.00,WUHU216HW,2013-10-25 09:59:00,
2013-10-25 06:04:00,29.1,26.6,30.37,West,270,0.0,0.0,90,0.00,,,0.00,WUHU216HW,2013-10-25 10:04:00,
2013-10-25 06:09:00,29.1,26.6,30.37,West,270,0.0,0.0,90,0.00,,,0.00,WUHU216HW,2013-10-25 10:09:00,
2013-10-25 06:14:00,29.1,26.6,30.38,West,270,0.0,0.0,90,0.00,,,0.00,WUHU216HW,2013-10-25 10:14:00,
2013-10-25 06:19:00,28.9,26.4,30.38,West,270,0.0,0.0,90,0.00,,,0.00,WUHU216HW,2013-10-25 10:19:00,
2013-10-25 06:24:00,28.7,26.2,30.38,West,270,0.0,0.0,90,0.00,,,0.00,WUHU216HW,2013-10-25 10:24:00,
2013-10-25 06:29:00,28.5,26.0,30.38,West,270,0.0,0.0,90,0.00,,,0.00,WUHU216HW,2013-10-25 10:29:00,
2013-10-25 06:34:00,28.4,25.8,30.39,West,270,0.0,0.0,90,0.00,,,0.00,WUHU216HW,2013-10-25 10:34:00,
2013-10-25 06:39:00,28.2,25.7,30.38,West,270,0.0,0.0,90,0.00,,,0.00,WUHU216HW,2013-10-25 10:39:00,
2013-10-25 06:45:00,28.2,25.7,30.39,West,270,0.0,0.0,90,0.00,,,0.00,WUHU216HW,2013-10-25 10:45:00,
2013-10-25 06:50:00,28.2,25.7,30.39,West,270,0.0,0.0,90,0.00,,,0.00,WUHU216HW,2013-10-25 10:50:00,
2013-10-25 06:55:00,28.2,25.7,30.39,West,270,0.0,0.0,90,0.00,,,0.00,WUHU216HW,2013-10-25 10:55:00,
2013-10-25 07:00:00,28.2,25.7,30.39,West,270,0.0,0.0,90,0.00,,,0.00,WUHU216HW,2013-10-25 11:00:00,
2013-10-25 07:05:00,28.2,25.7,30.40,West,270,0.0,0.0,90,0.00,,,0.00,WUHU216HW,2013-10-25 11:05:00,
2013-10-25 07:10:00,28.0,25.5,30.40,West,270,0.0,0.0,90,0.00,,,0.00,WUHU216HW,2013-10-25 11:10:00,
2013-10-25 07:15:00,28.0,25.5,30.40,West,270,0.0,0.0,90,0.00,,,0.00,WUHU216HW,2013-10-25 11:15:00,
2013-10-25 07:20:00,28.0,25.5,30.40,West,270,0.0,0.0,90,0.00,,,0.00,WUHU216HW,2013-10-25 11:20:00,
2013-10-25 07:25:00,28.0,25.5,30.41,West,270,0.0,0.0,90,0.00,,,0.00,WUHU216HW,2013-10-25 11:25:00,
2013-10-25 07:30:00,28.2,25.7,30.41,West,270,0.0,0.0,90,0.00,,,0.00,WUHU216HW,2013-10-25 11:30:00,
2013-10-25 07:35:00,28.5,26.3,30.41,West,270,0.0,0.0,91,0.00,,,0.00,WUHU216HW,2013-10-25 11:35:00,
2013-10-25 07:40:00,29.1,26.8,30.41,West,270,0.0,0.0,91,0.00,,,0.00,WUHU216HW,2013-10-25 11:40:00,
2013-10-25 07:45:00,29.3,27.0,30.41,West,270,0.0,0.0,91,0.00,,,0.00,WUHU216HW,2013-10-25 11:45:00,
2013-10-25 07:50:00,29.3,27.0,30.41,West,270,0.0,0.0,91,0.00,,,0.00,WUHU216HW,2013-10-25 11:50:00,
2013-10-25 07:56:00,29.4,27.2,30.41,West,270,0.0,0.0,91,0.00,,,0.00,WUHU216HW,2013-10-25 11:56:00,
2013-10-25 08:01:00,29.4,27.2,30.41,West,270,0.0,0.0,91,0.00,,,0.00,WUHU216HW,2013-10-25 12:01:00,
2013-10-25 08:06:00,29.3,27.0,30.41,West,270,0.0,0.0,91,0.00,,,0.00,WUHU216HW,2013-10-25 12:06:00,
2013-10-25 08:11:00,29.1,26.8,30.41,West,270,0.0,0.0,91,0.00,,,0.00,WUHU216HW,2013-10-25 12:11:00,
2013-10-25 08:16:00,29.1,26.8,30.42,West,270,0.0,0.0,91,0.00,,,0.00,WUHU216HW,2013-10-25 12:16:00,
2013-10-25 08:21:00,29.4,27.2,30.42,West,270,0.0,0.0,91,0.00,,,0.00,WUHU216HW,2013-10-25 12:21:00,
2013-10-25 08:26:00,29.4,26.9,30.42,West,270,0.0,0.0,90,0.00,,,0.00,WUHU216HW,2013-10-25 12:26:00,
2013-10-25 08:31:00,29.3,27.0,30.42,West,270,0.0,0.0,91,0.00,,,0.00,WUHU216HW,2013-10-25 12:31:00,
2013-10-25 08:36:00,29.3,27.0,30.42,West,270,0.0,0.0,91,0.00,,,0.00,WUHU216HW,2013-10-25 12:36:00,
2013-10-25 08:41:00,29.4,27.2,30.42,West,270,0.0,0.0,91,0.00,,,0.00,WUHU216HW,2013-10-25 12:41:00,
2013-10-25 08:46:00,29.8,27.5,30.43,West,270,0.0,0.0,91,0.00,,,0.00,WUHU216HW,2013-10-25 12:46:00,
2013-10-25 08:51:00,30.0,27.7,30.43,West,270,0.0,0.0,91,0.00,,,0.00,WUHU216HW,2013-10-25 12:51:00,
2013-10-25 08:56:00,30.3,28.1,30.43,West,270,0.0,2.6,91,0.00,,,0.00,WUHU216HW,2013-10-25 12:56:00,
2013-10-25 09:01:00,30.2,27.9,30.43,West,270,0.0,2.6,91,0.00,,,0.00,WUHU216HW,2013-10-25 13:01:00,
2013-10-25 09:06:00,30.2,27.9,30.43,West,270,0.0,0.0,91,0.00,,,0.00,WUHU216HW,2013-10-25 13:06:00,
2013-10-25 09:12:00,30.0,27.7,30.43,West,270,0.0,0.0,91,0.00,,,0.00,WUHU216HW,2013-10-25 13:12:00,
2013-10-25 09:17:00,31.1,28.8,30.43,West,270,0.0,0.0,91,0.00,,,0.00,WUHU216HW,2013-10-25 13:17:00,
2013-10-25 09:22:00,33.4,30.7,30.42,West,270,0.0,0.0,90,0.00,,,0.00,WUHU216HW,2013-10-25 13:22:00,
2013-10-25 09:27:00,36.6,32.8,30.42,West,270,0.0,0.0,86,0.00,,,0.00,WUHU216HW,2013-10-25 13:27:00,
2013-10-25 09:32:00,38.1,33.9,30.42,West,270,0.0,0.0,85,0.00,,,0.00,WUHU216HW,2013-10-25 13:32:00,
2013-10-25 09:37:00,39.3,35.2,30.42,West,270,0.0,0.0,85,0.00,,,0.00,WUHU216HW,2013-10-25 13:37:00,
2013-10-25 09:42:00,41.1,36.6,30.42,WNW,293,0.0,0.0,84,0.00,,,0.00,WUHU216HW,2013-10-25 13:42:00,
2013-10-25 09:47:00,42.0,37.2,30.42,West,270,0.0,0.0,83,0.00,,,0.00,WUHU216HW,2013-10-25 13:47:00,
2013-10-25 09:52:00,43.5,38.3,30.42,WSW,248,0.0,0.0,82,0.00,,,0.00,WUHU216HW,2013-10-25 13:52:00,
2013-10-25 09:57:00,45.1,39.3,30.42,North,0,0.0,0.0,80,0.00,,,0.00,WUHU216HW,2013-10-25 13:57:00,
2013-10-25 10:02:00,46.5,40.1,30.42,WSW,248,0.0,0.0,78,0.00,,,0.00,WUHU216HW,2013-10-25 14:02:00,
2013-10-25 10:07:00,48.3,41.4,30.42,WNW,293,0.0,0.0,77,0.00,,,0.00,WUHU216HW,2013-10-25 14:07:00,
2013-10-25 10:12:00,50.5,42.5,30.42,WSW,248,0.0,0.0,74,0.00,,,0.00,WUHU216HW,2013-10-25 14:12:00,
2013-10-25 10:17:00,51.4,43.4,30.42,West,270,0.0,2.0,74,0.00,,,0.00,WUHU216HW,2013-10-25 14:17:00,
2013-10-25 10:23:00,52.7,43.9,30.42,SSE,158,0.0,2.0,72,0.00,,,0.00,WUHU216HW,2013-10-25 14:23:00,
2013-10-25 10:28:00,54.6,45.4,30.42,SW,225,0.0,0.0,71,0.00,,,0.00,WUHU216HW,2013-10-25 14:28:00,
2013-10-25 10:33:00,54.8,44.9,30.42,West,270,0.0,0.0,69,0.00,,,0.00,WUHU216HW,2013-10-25 14:33:00,
2013-10-25 10:38:00,55.2,45.2,30.42,WNW,293,0.0,0.0,69,0.00,,,0.00,WUHU216HW,2013-10-25 14:38:00,
2013-10-25 10:43:00,56.4,45.6,30.41,WNW,293,0.0,0.0,67,0.00,,,0.00,WUHU216HW,2013-10-25 14:43:00,
2013-10-25 10:48:00,57.9,44.5,30.42,WNW,293,0.0,0.0,61,0.00,,,0.00,WUHU216HW,2013-10-25 14:48:00,
2013-10-25 10:53:00,58.2,44.8,30.42,SW,225,0.0,0.0,61,0.00,,,0.00,WUHU216HW,2013-10-25 14:53:00,
2013-10-25 10:58:00,58.6,43.8,30.42,North,0,0.0,0.0,58,0.00,,,0.00,WUHU216HW,2013-10-25 14:58:00,
2013-10-25 11:03:00,59.5,42.3,30.41,North,0,0.0,0.0,53,0.00,,,0.00,WUHU216HW,2013-10-25 15:03:00,
2013-10-25 11:08:00,60.6,43.8,30.41,NW,315,2.0,2.0,54,0.00,,,0.00,WUHU216HW,2013-10-25 15:08:00,
2013-10-25 11:13:00,61.3,44.0,30.41,WSW,248,0.0,2.0,53,0.00,,,0.00,WUHU216HW,2013-10-25 15:13:00,
2013-10-25 11:18:00,62.2,41.6,30.41,SSW,203,0.0,2.0,50,0.00,,,0.00,WUHU216HW,2013-10-25 15:18:00,
2013-10-25 11:23:00,61.3,42.5,30.41,SSE,158,0.0,0.0,50,0.00,,,0.00,WUHU216HW,2013-10-25 15:23:00,
2013-10-25 11:28:00,61.3,41.4,30.41,WSW,248,0.0,0.0,48,0.00,,,0.00,WUHU216HW,2013-10-25 15:28:00,
2013-10-25 11:34:00,61.5,41.5,30.41,SW,225,0.0,10.5,48,0.00,,,0.00,WUHU216HW,2013-10-25 15:34:00,
2013-10-25 11:39:00,61.5,41.5,30.41,ESE,113,0.0,10.5,48,0.00,,,0.00,WUHU216HW,2013-10-25 15:39:00,
2013-10-25 11:44:00,62.0,39.7,30.41,NNW,338,0.0,5.8,44,0.00,,,0.00,WUHU216HW,2013-10-25 15:44:00,
2013-10-25 11:49:00,62.7,40.4,30.41,NNW,338,3.3,5.8,44,0.00,,,0.00,WUHU216HW,2013-10-25 15:49:00,
2013-10-25 11:54:00,63.1,39.5,30.40,ESE,113,0.0,3.3,42,0.00,,,0.00,WUHU216HW,2013-10-25 15:54:00,
2013-10-25 11:59:00,64.0,39.8,30.40,NW,315,0.0,3.3,41,0.00,,,0.00,WUHU216HW,2013-10-25 15:59:00,
2013-10-25 12:04:00,64.7,40.4,30.40,NNE,23,0.0,0.0,41,0.00,,,0.00,WUHU216HW,2013-10-25 16:04:00,
2013-10-25 12:09:00,63.3,39.1,30.41,ENE,68,0.0,0.0,41,0.00,,,0.00,WUHU216HW,2013-10-25 16:09:00,
2013-10-25 12:14:00,59.3,36.7,30.40,SW,225,2.4,4.4,43,0.00,,,0.00,WUHU216HW,2013-10-25 16:14:00,
2013-10-25 12:19:00,59.5,38.0,30.40,WNW,293,0.0,4.4,45,0.00,,,0.00,WUHU216HW,2013-10-25 16:19:00,
2013-10-25 12:24:00,62.4,38.3,30.40,East,90,0.0,3.8,41,0.00,,,0.00,WUHU216HW,2013-10-25 16:24:00,
2013-10-25 12:29:00,65.4,40.5,30.40,NW,315,0.0,3.8,40,0.00,,,0.00,WUHU216HW,2013-10-25 16:29:00,
2013-10-25 12:34:00,66.3,39.8,30.40,NW,315,0.0,1.5,38,0.00,,,0.00,WUHU216HW,2013-10-25 16:34:00,
2013-10-25 12:39:00,65.6,38.5,30.40,NW,315,4.2,4.2,37,0.00,,,0.00,WUHU216HW,2013-10-25 16:39:00,
2013-10-25 12:44:00,59.9,34.7,30.40,West,270,2.4,4.2,39,0.00,,,0.00,WUHU216HW,2013-10-25 16:44:00,
2013-10-25 12:49:00,56.1,33.2,30.39,WSW,248,0.0,2.4,42,0.00,,,0.00,WUHU216HW,2013-10-25 16:49:00,
2013-10-25 12:55:00,58.2,36.3,30.39,NW,315,0.8,0.8,44,0.00,,,0.00,WUHU216HW,2013-10-25 16:55:00,
2013-10-25 13:00:00,60.4,37.1,30.40,NNW,338,0.0,0.8,42,0.00,,,0.00,WUHU216HW,2013-10-25 17:00:00,
2013-10-25 13:05:00,59.5,35.1,30.38,WSW,248,6.2,6.2,41,0.00,,,0.00,WUHU216HW,2013-10-25 17:05:00,
2013-10-25 13:10:00,59.9,35.5,30.39,NNW,338,0.0,6.2,40,0.00,,,0.00,WUHU216HW,2013-10-25 17:10:00,
2013-10-25 13:15:00,59.5,33.7,30.39,NNW,338,0.0,6.2,38,0.00,,,0.00,WUHU216HW,2013-10-25 17:15:00,
2013-10-25 13:20:00,56.1,32.6,30.39,NNW,338,0.0,0.0,41,0.00,,,0.00,WUHU216HW,2013-10-25 17:20:00,
2013-10-25 13:25:00,54.8,32.0,30.38,ENE,68,0.0,0.0,42,0.00,,,0.00,WUHU216HW,2013-10-25 17:25:00,
2013-10-25 13:30:00,56.3,33.4,30.38,West,270,0.0,2.4,42,0.00,,,0.00,WUHU216HW,2013-10-25 17:30:00,
2013-10-25 13:35:00,56.8,34.4,30.38,NW,315,0.0,3.5,42,0.00,,,0.00,WUHU216HW,2013-10-25 17:35:00,
2013-10-25 13:40:00,55.0,33.3,30.38,WSW,248,0.0,3.5,44,0.00,,,0.00,WUHU216HW,2013-10-25 17:40:00,
2013-10-25 13:45:00,55.4,33.6,30.38,SW,225,0.0,0.0,44,0.00,,,0.00,WUHU216HW,2013-10-25 17:45:00,
2013-10-25 13:50:00,52.5,31.6,30.38,SW,225,0.0,0.6,45,0.00,,,0.00,WUHU216HW,2013-10-25 17:50:00,
2013-10-25 13:55:00,50.7,31.7,30.37,SSE,158,0.0,4.9,48,0.00,,,0.00,WUHU216HW,2013-10-25 17:55:00,
2013-10-25 14:01:00,49.2,31.4,30.37,SSW,203,6.7,6.7,50,0.00,,,0.00,WUHU216HW,2013-10-25 18:01:00,
2013-10-25 14:06:00,48.9,31.1,30.36,SW,225,3.8,6.7,50,0.00,,,0.00,WUHU216HW,2013-10-25 18:06:00,
2013-10-25 14:11:00,49.1,31.7,30.36,NNW,338,0.0,6.7,51,0.00,,,0.00,WUHU216HW,2013-10-25 18:11:00,
2013-10-25 14:16:00,50.3,32.9,30.36,NW,315,0.0,2.2,51,0.00,,,0.00,WUHU216HW,2013-10-25 18:16:00,
2013-10-25 14:21:00,50.3,32.9,30.36,SSW,203,0.0,2.2,51,0.00,,,0.00,WUHU216HW,2013-10-25 18:21:00,
2013-10-25 14:26:00,50.7,33.2,30.35,NW,315,1.3,1.3,51,0.00,,,0.00,WUHU216HW,2013-10-25 18:26:00,
2013-10-25 14:31:00,55.4,34.8,30.35,West,270,0.0,1.3,46,0.00,,,0.00,WUHU216HW,2013-10-25 18:31:00,
2013-10-25 14:36:00,55.4,33.1,30.35,SSW,203,2.6,2.6,43,0.00,,,0.00,WUHU216HW,2013-10-25 18:36:00,
2013-10-25 14:41:00,57.9,34.8,30.35,WSW,248,0.0,2.6,42,0.00,,,0.00,WUHU216HW,2013-10-25 18:41:00,
2013-10-25 14:46:00,58.8,34.5,30.35,WSW,248,0.0,4.2,40,0.00,,,0.00,WUHU216HW,2013-10-25 18:46:00,
2013-10-25 14:51:00,59.3,32.9,30.35,WSW,248,3.1,4.2,37,0.00,,,0.00,WUHU216HW,2013-10-25 18:51:00,
2013-10-25 14:56:00,56.3,31.5,30.35,NW,315,1.3,3.1,39,0.00,,,0.00,WUHU216HW,2013-10-25 18:56:00,
2013-10-25 15:01:00,59.0,33.9,30.35,South,180,2.0,2.0,39,0.00,,,0.00,WUHU216HW,2013-10-25 19:01:00,
2013-10-25 15:07:00,61.5,36.2,30.35,SSW,203,4.0,4.0,39,0.00,,,0.00,WUHU216HW,2013-10-25 19:07:00,
2013-10-25 15:12:00,63.1,34.8,30.35,SSW,203,2.6,4.0,35,0.00,,,0.00,WUHU216HW,2013-10-25 19:12:00,
2013-10-25 15:17:00,62.2,33.2,30.34,SSW,203,0.0,4.0,34,0.00,,,0.00,WUHU216HW,2013-10-25 19:17:00,
2013-10-25 15:22:00,62.7,33.7,30.34,SE,135,0.0,2.6,34,0.00,,,0.00,WUHU216HW,2013-10-25 19:22:00,
2013-10-25 15:27:00,63.6,33.8,30.33,SE,135,0.0,7.1,33,0.00,,,0.00,WUHU216HW,2013-10-25 19:27:00,
2013-10-25 15:32:00,64.5,34.6,30.33,SSW,203,14.3,14.3,33,0.00,,,0.00,WUHU216HW,2013-10-25 19:32:00,
2013-10-25 15:37:00,64.5,34.6,30.33,SSW,203,4.4,14.3,32,0.00,,,0.00,WUHU216HW,2013-10-25 19:37:00,
2013-10-25 15:42:00,63.1,32.6,30.33,South,180,9.6,9.6,32,0.00,,,0.00,WUHU216HW,2013-10-25 19:42:00,
2013-10-25 15:47:00,59.5,30.2,30.33,SW,225,1.3,9.6,33,0.00,,,0.00,WUHU216HW,2013-10-25 19:47:00,
2013-10-25 15:52:00,55.0,29.0,30.33,South,180,0.0,9.6,37,0.00,,,0.00,WUHU216HW,2013-10-25 19:52:00,
2013-10-25 15:57:00,52.3,28.0,30.33,WNW,293,0.0,3.3,39,0.00,,,0.00,WUHU216HW,2013-10-25 19:57:00,
2013-10-25 16:02:00,50.7,27.8,30.33,West,270,0.0,0.0,41,0.00,,,0.00,WUHU216HW,2013-10-25 20:02:00,
2013-10-25 16:07:00,48.5,26.9,30.33,NW,315,0.0,3.5,43,0.00,,,0.00,WUHU216HW,2013-10-25 20:07:00,
2013-10-25 16:13:00,47.8,26.8,30.33,NNE,23,0.0,3.5,44,0.00,,,0.00,WUHU216HW,2013-10-25 20:13:00,
2013-10-25 16:18:00,46.9,27.0,30.33,South,180,0.0,0.8,46,0.00,,,0.00,WUHU216HW,2013-10-25 20:18:00,
2013-10-25 16:23:00,46.9,27.6,30.32,NW,315,0.0,0.8,47,0.00,,,0.00,WUHU216HW,2013-10-25 20:23:00,
2013-10-25 16:28:00,47.1,27.7,30.32,WNW,293,3.8,3.8,47,0.00,,,0.00,WUHU216HW,2013-10-25 20:28:00,
2013-10-25 16:33:00,49.6,30.1,30.32,SW,225,1.3,3.8,47,0.00,,,0.00,WUHU216HW,2013-10-25 20:33:00,
2013-10-25 16:38:00,50.1,29.5,30.31,SW,225,0.0,4.0,45,0.00,,,0.00,WUHU216HW,2013-10-25 20:38:00,
2013-10-25 16:43:00,49.4,29.4,30.31,SE,135,0.0,4.0,46,0.00,,,0.00,WUHU216HW,2013-10-25 20:43:00,
2013-10-25 16:48:00,48.0,28.0,30.31,SSE,158,0.0,2.4,46,0.00,,,0.00,WUHU216HW,2013-10-25 20:48:00,
2013-10-25 16:53:00,47.1,27.7,30.31,North,0,0.0,3.8,47,0.00,,,0.00,WUHU216HW,2013-10-25 20:53:00,
2013-10-25 16:58:00,46.5,27.8,30.31,SW,225,0.0,3.8,48,0.00,,,0.00,WUHU216HW,2013-10-25 20:58:00,
2013-10-25 17:03:00,45.6,27.5,30.30,NNE,23,0.0,0.0,49,0.00,,,0.00,WUHU216HW,2013-10-25 21:03:00,
2013-10-25 17:08:00,45.5,27.9,30.30,SSW,203,0.0,0.0,50,0.00,,,0.00,WUHU216HW,2013-10-25 21:08:00,
2013-10-25 17:13:00,45.1,28.0,30.29,ESE,113,0.0,0.0,51,0.00,,,0.00,WUHU216HW,2013-10-25 21:13:00,
2013-10-25 17:18:00,44.9,28.3,30.30,SE,135,1.5,2.9,52,0.00,,,0.00,WUHU216HW,2013-10-25 21:18:00,
2013-10-25 17:23:00,44.9,28.3,30.30,NNW,338,0.0,2.9,52,0.00,,,0.00,WUHU216HW,2013-10-25 21:23:00,
2013-10-25 17:29:00,44.9,28.3,30.30,ENE,68,0.0,0.0,52,0.00,,,0.00,WUHU216HW,2013-10-25 21:29:00,
2013-10-25 17:34:00,44.9,28.3,30.30,WNW,293,0.0,0.0,52,0.00,,,0.00,WUHU216HW,2013-10-25 21:34:00,
2013-10-25 17:39:00,44.7,28.2,30.30,NNW,338,0.0,0.0,52,0.00,,,0.00,WUHU216HW,2013-10-25 21:39:00,
2013-10-25 17:44:00,44.7,28.6,30.31,North,0,0.0,0.0,53,0.00,,,0.00,WUHU216HW,2013-10-25 21:44:00,
2013-10-25 17:49:00,44.6,28.0,30.30,West,270,0.0,0.0,52,0.00,,,0.00,WUHU216HW,2013-10-25 21:49:00,
2013-10-25 17:54:00,44.4,27.6,30.29,WNW,293,0.0,3.8,52,0.00,,,0.00,WUHU216HW,2013-10-25 21:54:00,
2013-10-25 17:59:00,43.5,27.0,30.28,SW,225,0.0,3.8,52,0.00,,,0.00,WUHU216HW,2013-10-25 21:59:00,
2013-10-25 18:04:00,42.9,26.5,30.29,WSW,248,0.0,0.0,52,0.00,,,0.00,WUHU216HW,2013-10-25 22:04:00,
2013-10-25 18:09:00,42.4,26.4,30.28,NNW,338,0.0,2.0,53,0.00,,,0.00,WUHU216HW,2013-10-25 22:09:00,
2013-10-25 18:14:00,41.7,26.2,30.29,NW,315,0.0,2.0,54,0.00,,,0.00,WUHU216HW,2013-10-25 22:14:00,
2013-10-25 18:19:00,41.1,25.6,30.28,SW,225,0.0,0.0,54,0.00,,,0.00,WUHU216HW,2013-10-25 22:19:00,
2013-10-25 18:24:00,40.8,25.7,30.28,SW,225,0.0,0.0,56,0.00,,,0.00,WUHU216HW,2013-10-25 22:24:00,
2013-10-25 18:29:00,40.4,25.8,30.28,West,270,0.0,0.0,56,0.00,,,0.00,WUHU216HW,2013-10-25 22:29:00,
2013-10-25 18:34:00,40.6,26.5,30.28,WSW,248,0.0,0.0,57,0.00,,,0.00,WUHU216HW,2013-10-25 22:34:00,
2013-10-25 18:40:00,40.6,26.5,30.28,SSW,203,0.0,0.0,57,0.00,,,0.00,WUHU216HW,2013-10-25 22:40:00,
2013-10-25 18:45:00,40.6,26.9,30.27,SSW,203,0.0,0.0,58,0.00,,,0.00,WUHU216HW,2013-10-25 22:45:00,
2013-10-25 18:50:00,40.4,26.7,30.27,North,0,0.0,0.0,58,0.00,,,0.00,WUHU216HW,2013-10-25 22:50:00,
2013-10-25 18:55:00,40.2,26.6,30.27,South,180,1.7,1.7,58,0.00,,,0.00,WUHU216HW,2013-10-25 22:55:00,
2013-10-25 19:00:00,40.2,27.0,30.27,SSW,203,2.0,2.0,59,0.00,,,0.00,WUHU216HW,2013-10-25 23:00:00,
2013-10-25 19:05:00,40.1,26.8,30.27,South,180,0.0,2.9,59,0.00,,,0.00,WUHU216HW,2013-10-25 23:05:00,
2013-10-25 19:10:00,39.9,26.6,30.26,WSW,248,0.0,2.9,59,0.00,,,0.00,WUHU216HW,2013-10-25 23:10:00,
2013-10-25 19:15:00,39.7,26.5,30.27,WSW,248,0.0,0.0,59,0.00,,,0.00,WUHU216HW,2013-10-25 23:15:00,
2013-10-25 19:20:00,39.7,26.9,30.26,SW,225,0.0,3.8,60,0.00,,,0.00,WUHU216HW,2013-10-25 23:20:00,
2013-10-25 19:25:00,39.7,26.9,30.26,South,180,0.0,3.8,60,0.00,,,0.00,WUHU216HW,2013-10-25 23:25:00,
2013-10-25 19:30:00,39.7,26.9,30.26,SW,225,0.0,0.0,60,0.00,,,0.00,WUHU216HW,2013-10-25 23:30:00,
2013-10-25 19:35:00,39.9,27.1,30.26,SSW,203,0.0,0.0,60,0.00,,,0.00,WUHU216HW,2013-10-25 23:35:00,
2013-10-25 19:40:00,39.9,26.6,30.25,South,180,0.0,0.0,59,0.00,,,0.00,WUHU216HW,2013-10-25 23:40:00,
2013-10-25 19:45:00,39.9,26.6,30.25,SSW,203,0.0,0.0,59,0.00,,,0.00,WUHU216HW,2013-10-25 23:45:00,
2013-10-25 19:51:00,40.1,26.8,30.25,South,180,0.0,0.0,59,0.00,,,0.00,WUHU216HW,2013-10-25 23:51:00,
2013-10-25 19:56:00,40.1,26.8,30.25,SE,135,0.0,0.0,59,0.00,,,0.00,WUHU216HW,2013-10-25 23:56:00,
2013-10-25 20:01:00,40.1,26.8,30.24,North,0,2.2,2.2,59,0.00,,,0.00,WUHU216HW,2013-10-26 00:01:00,
2013-10-25 20:06:00,40.2,27.0,30.25,NNE,23,0.0,2.2,59,0.00,,,0.00,WUHU216HW,2013-10-26 00:06:00,
2013-10-25 20:11:00,40.2,27.0,30.25,SW,225,0.0,2.2,59,0.00,,,0.00,WUHU216HW,2013-10-26 00:11:00,
2013-10-25 20:16:00,40.2,26.6,30.25,SW,225,0.0,4.0,58,0.00,,,0.00,WUHU216HW,2013-10-26 00:16:00,
2013-10-25 20:21:00,40.2,27.0,30.25,South,180,3.1,4.0,59,0.00,,,0.00,WUHU216HW,2013-10-26 00:21:00,
2013-10-25 20:26:00,40.2,27.0,30.25,SSW,203,0.0,3.1,59,0.00,,,0.00,WUHU216HW,2013-10-26 00:26:00,
2013-10-25 20:31:00,40.2,27.0,30.25,WSW,248,0.0,2.2,59,0.00,,,0.00,WUHU216HW,2013-10-26 00:31:00,
2013-10-25 20:36:00,40.2,27.0,30.25,SW,225,0.0,0.0,59,0.00,,,0.00,WUHU216HW,2013-10-26 00:36:00,
2013-10-25 20:41:00,40.1,27.0,30.25,SSE,158,6.9,6.9,59,0.00,,,0.00,WUHU216HW,2013-10-26 00:41:00,
2013-10-25 20:46:00,40.2,27.0,30.25,SW,225,2.0,6.9,59,0.00,,,0.00,WUHU216HW,2013-10-26 00:46:00,
2013-10-25 20:51:00,40.4,27.2,30.24,West,270,2.0,6.9,59,0.00,,,0.00,WUHU216HW,2013-10-26 00:51:00,
2013-10-25 20:57:00,40.6,27.4,30.23,ENE,68,0.0,2.0,59,0.00,,,0.00,WUHU216HW,2013-10-26 00:57:00,
2013-10-25 21:02:00,40.6,26.9,30.22,SW,225,0.0,2.2,58,0.00,,,0.00,WUHU216HW,2013-10-26 01:02:00,
2013-10-25 21:07:00,40.6,27.4,30.22,SSE,158,2.6,2.6,59,0.00,,,0.00,WUHU216HW,2013-10-26 01:07:00,
2013-10-25 21:12:00,40.6,27.4,30.23,SE,135,0.0,2.6,59,0.00,,,0.00,WUHU216HW,2013-10-26 01:12:00,
2013-10-25 21:17:00,40.6,27.4,30.22,SSE,158,3.5,3.5,59,0.00,,,0.00,WUHU216HW,2013-10-26 01:17:00,
2013-10-25 21:22:00,40.6,27.4,30.22,North,0,0.0,7.3,59,0.00,,,0.00,WUHU216HW,2013-10-26 01:22:00,
2013-10-25 21:27:00,40.4,27.2,30.21,South,180,0.0,7.3,59,0.00,,,0.00,WUHU216HW,2013-10-26 01:27:00,
2013-10-25 21:32:00,40.4,27.2,30.20,SSW,203,0.0,0.0,59,0.00,,,0.00,WUHU216HW,2013-10-26 01:32:00,
2013-10-25 21:37:00,40.4,27.2,30.20,SSW,203,3.8,3.8,59,0.00,,,0.00,WUHU216HW,2013-10-26 01:37:00,
2013-10-25 21:42:00,40.4,26.7,30.19,SSE,158,0.0,3.8,58,0.00,,,0.00,WUHU216HW,2013-10-26 01:42:00,
2013-10-25 21:47:00,40.4,26.7,30.19,WNW,293,0.0,5.1,58,0.00,,,0.00,WUHU216HW,2013-10-26 01:47:00,
2013-10-25 21:52:00,40.4,26.3,30.20,SSW,203,0.0,5.1,57,0.00,,,0.00,WUHU216HW,2013-10-26 01:52:00,
2013-10-25 21:57:00,40.4,26.3,30.20,South,180,2.2,4.2,57,0.00,,,0.00,WUHU216HW,2013-10-26 01:57:00,
2013-10-25 22:02:00,40.4,26.3,30.19,South,180,4.6,4.6,57,0.00,,,0.00,WUHU216HW,2013-10-26 02:02:00,
2013-10-25 22:07:00,40.2,26.6,30.18,South,180,7.1,7.1,58,0.00,,,0.00,WUHU216HW,2013-10-26 02:07:00,
2013-10-25 22:13:00,40.4,26.7,30.16,NW,315,1.3,7.1,58,0.00,,,0.00,WUHU216HW,2013-10-26 02:13:00,
2013-10-25 22:18:00,40.4,26.7,30.17,West,270,3.1,4.0,58,0.00,,,0.00,WUHU216HW,2013-10-26 02:18:00,
2013-10-25 22:23:00,40.4,26.7,30.17,SSW,203,0.0,3.1,58,0.00,,,0.00,WUHU216HW,2013-10-26 02:23:00,
2013-10-25 22:28:00,40.6,26.9,30.16,SSW,203,0.0,5.8,58,0.00,,,0.00,WUHU216HW,2013-10-26 02:28:00,
2013-10-25 22:33:00,40.6,27.4,30.16,WSW,248,6.9,6.9,59,0.00,,,0.00,WUHU216HW,2013-10-26 02:33:00,
2013-10-25 22:38:00,40.6,27.4,30.15,WSW,248,0.0,6.9,59,0.00,,,0.00,WUHU216HW,2013-10-26 02:38:00,
2013-10-25 22:43:00,40.8,28.0,30.14,WSW,248,10.9,10.9,60,0.00,,,0.00,WUHU216HW,2013-10-26 02:43:00,
2013-10-25 22:48:00,40.8,28.4,30.14,ESE,113,0.0,10.9,61,0.00,,,0.00,WUHU216HW,2013-10-26 02:48:00,
2013-10-25 22:53:00,40.8,28.4,30.15,SSE,158,13.4,13.4,61,0.00,,,0.00,WUHU216HW,2013-10-26 02:53:00,
2013-10-25 22:58:00,41.1,28.7,30.14,South,180,10.5,13.4,61,0.00,,,0.00,WUHU216HW,2013-10-26 02:58:00,
2013-10-25 23:03:00,41.1,28.7,30.14,SSW,203,4.6,10.5,61,0.00,,,0.00,WUHU216HW,2013-10-26 03:03:00,
2013-10-25 23:08:00,41.1,28.7,30.14,SSW,203,0.0,10.5,61,0.00,,,0.00,WUHU216HW,2013-10-26 03:08:00,
2013-10-25 23:13:00,41.1,29.1,30.12,WSW,248,0.0,6.4,62,0.00,,,0.00,WUHU216HW,2013-10-26 03:13:00,
2013-10-25 23:18:00,41.1,29.1,30.12,NW,315,0.0,11.4,62,0.00,,,0.00,WUHU216HW,2013-10-26 03:18:00,
2013-10-25 23:23:00,41.1,29.1,30.12,SSW,203,3.5,11.4,62,0.00,,,0.00,WUHU216HW,2013-10-26 03:23:00,
2013-10-25 23:29:00,41.3,29.6,30.12,SSE,158,0.0,5.5,63,0.00,,,0.00,WUHU216HW,2013-10-26 03:29:00,
2013-10-25 23:34:00,41.3,29.6,30.12,WSW,248,3.5,5.5,63,0.00,,,0.00,WUHU216HW,2013-10-26 03:34:00,
2013-10-25 23:39:00,41.5,29.8,30.12,WNW,293,0.0,5.5,63,0.00,,,0.00,WUHU216HW,2013-10-26 03:39:00,
2013-10-25 23:44:00,41.3,29.6,30.12,SSW,203,1.7,5.5,63,0.00,,,0.00,WUHU216HW,2013-10-26 03:44:00,
2013-10-25 23:49:00,41.3,29.6,30.11,SSW,203,5.1,5.1,63,0.00,,,0.00,WUHU216HW,2013-10-26 03:49:00,
2013-10-25 23:54:00,41.3,29.3,30.10,SW,225,0.0,10.5,62,0.00,,,0.00,WUHU216HW,2013-10-26 03:54:00,
2013-10-25 23:59:00,41.3,29.3,30.09,SSW,203,0.0,10.5,62,0.00,,,0.00,WUHU216HW,2013-10-26 03:59:00,